Tracking 34403 objects as of 13-Jun-2026
HD Live streaming from Space Station
objects crossing your sky now

COSMOS 1247

Track COSMOS 1247 now!
COSMOS 1247 is classified as:


NORAD ID: 12303
Int'l Code: 1981-016A
Perigee: 3,578.0 km
Apogee: 36,461.8 km
Inclination: 69.2 °
Period: 711.1 minutes
Semi major axis: 26390 km
RCS: 8.0719 m2 (large)
Launch date: February 19, 1981
Source: Commonwealth of Independent States (former USSR) (CIS)
Launch site: PLESETSK MISSILE AND SPACE COMPLEX (PKMTR)
Your satellite tracking list
Your tracking list is empty




NASA's NSSDC Master Catalog

Two Line Element Set (TLE):
1 12303U 81016A   26160.22708714  .00000723  00000-0  00000-0 0  9993
2 12303  69.2124 355.8746 6230142 339.1642   3.8647  2.02498122335019
Source of the keplerian elements: AFSPC